When you browse on this site, cookies collect data to enhance your experience and personalize the content and advertising you see.
Visit our Privacy Policy to learn more. By continuing to use the site, you agree to this use of cookies and data.
  • Em Portugal
  • Lista de países
  • Para 7 dias
  • Temperatura da água
  • Mapa do tempo
  • Widgets de tempo
  • user-avatar
    Iniciar Sessão

    Previsão horária em Kaunas

    Hoje, 10 Abril, Sexta-feira

    Tempo Temperatura Precipitação Vento Pressão Humidade
    00:00 +3°C° 0 mm 4 m/s 758 mmHg 69%
    01:00 +2°C° 0 mm 3 m/s 759 mmHg 69%
    02:00 +1°C° 0 mm 3 m/s 759 mmHg 69%
    03:00 +1°C° 0 mm 3 m/s 759 mmHg 70%
    04:00 0°C° 0 mm 3 m/s 759 mmHg 70%
    05:00 0°C° 0 mm 3 m/s 760 mmHg 71%
    06:00 +1°C° 0 mm 3 m/s 760 mmHg 68%
    07:00 +2°C° 0 mm 3 m/s 760 mmHg 65%
    08:00 +4°C° 0 mm 3 m/s 761 mmHg 61%
    09:00 +5°C° 0 mm 3 m/s 761 mmHg 55%
    10:00 +8°C° 0 mm 3 m/s 761 mmHg 48%
    11:00 +8°C° 0 mm 4 m/s 761 mmHg 42%
    12:00 +8°C° 0 mm 4 m/s 761 mmHg 41%
    13:00 +10°C° 0 mm 4 m/s 760 mmHg 40%
    14:00 +9°C° 0 mm 5 m/s 760 mmHg 40%
    15:00 +9°C° 0 mm 5 m/s 760 mmHg 41%
    16:00 +9°C° 0 mm 5 m/s 760 mmHg 43%
    17:00 +9°C° 0 mm 6 m/s 760 mmHg 45%
    18:00 +7°C° 0 mm 5 m/s 760 mmHg 50%
    19:00 +6°C° 0 mm 4 m/s 760 mmHg 56%
    20:00 +4°C° 0 mm 3 m/s 760 mmHg 62%
    21:00 +4°C° 0 mm 3 m/s 761 mmHg 67%
    22:00 +3°C° 0 mm 3 m/s 761 mmHg 72%
    23:00 +3°C° 0 mm 2 m/s 761 mmHg 77%

    Amanhã, 11 Abril, Sábado

    Tempo Temperatura Precipitação Vento Pressão Humidade
    00:00 +3°C° 0 mm 2 m/s 761 mmHg 77%
    01:00 +2°C° 0 mm 2 m/s 762 mmHg 78%
    02:00 +1°C° 0 mm 2 m/s 762 mmHg 79%
    03:00 +1°C° 0 mm 2 m/s 763 mmHg 80%
    04:00 -1°C° 0 mm 2 m/s 763 mmHg 80%
    05:00 -1°C° 0 mm 2 m/s 763 mmHg 81%
    06:00 +1°C° 0 mm 2 m/s 763 mmHg 74%
    07:00 +1°C° 0 mm 3 m/s 764 mmHg 67%
    08:00 +3°C° 0 mm 3 m/s 764 mmHg 60%
    09:00 +4°C° 0 mm 3 m/s 764 mmHg 55%
    10:00 +5°C° 0 mm 3 m/s 764 mmHg 50%
    11:00 +8°C° 0 mm 3 m/s 765 mmHg 45%
    12:00 +8°C° 0 mm 3 m/s 765 mmHg 44%
    13:00 +9°C° 0 mm 3 m/s 765 mmHg 43%
    14:00 +9°C° 0 mm 3 m/s 764 mmHg 42%
    15:00 +9°C° 0 mm 3 m/s 764 mmHg 43%
    16:00 +9°C° 0 mm 3 m/s 764 mmHg 43%
    17:00 +9°C° 0 mm 3 m/s 764 mmHg 44%
    18:00 +8°C° 0 mm 2 m/s 764 mmHg 49%
    19:00 +7°C° 0 mm 2 m/s 764 mmHg 54%
    20:00 +6°C° 0 mm 2 m/s 764 mmHg 59%
    21:00 +6°C° 0 mm 1 m/s 764 mmHg 60%
    22:00 +6°C° 0 mm 1 m/s 764 mmHg 62%
    23:00 +5°C° 0 mm 1 m/s 764 mmHg 63%

    Depois de amanhã, 12 Abril, Domingo

    Tempo Temperatura Precipitação Vento Pressão Humidade
    00:00 +5°C° 0 mm 1 m/s 763 mmHg 62%
    01:00 +4°C° 0 mm 2 m/s 763 mmHg 62%
    02:00 +3°C° 0 mm 3 m/s 763 mmHg 62%
    03:00 +3°C° 0 mm 3 m/s 762 mmHg 60%
    04:00 +3°C° 0 mm 4 m/s 762 mmHg 58%
    05:00 +2°C° 0 mm 5 m/s 761 mmHg 56%
    06:00 +3°C° 0 mm 5 m/s 761 mmHg 55%
    07:00 +4°C° 0 mm 6 m/s 761 mmHg 54%
    08:00 +4°C° 0 mm 6 m/s 760 mmHg 53%
    09:00 +5°C° 0 mm 6 m/s 760 mmHg 52%
    10:00 +7°C° 0 mm 6 m/s 759 mmHg 52%
    11:00 +8°C° 0 mm 6 m/s 758 mmHg 52%
    12:00 +8°C° 0.1 mm 6 m/s 758 mmHg 57%
    13:00 +7°C° 0.1 mm 6 m/s 757 mmHg 62%
    14:00 +7°C° 0.1 mm 6 m/s 757 mmHg 67%
    15:00 +7°C° 0.2 mm 6 m/s 756 mmHg 70%
    16:00 +7°C° 0.2 mm 5 m/s 756 mmHg 73%
    17:00 +7°C° 0.2 mm 5 m/s 755 mmHg 76%
    18:00 +7°C° 0.1 mm 5 m/s 755 mmHg 76%
    19:00 +7°C° 0.1 mm 5 m/s 754 mmHg 75%
    20:00 +7°C° 0.1 mm 5 m/s 753 mmHg 75%
    21:00 +7°C° 0 mm 5 m/s 753 mmHg 73%
    22:00 +8°C° 0 mm 5 m/s 752 mmHg 72%
    23:00 +8°C° 0 mm 5 m/s 752 mmHg 70%

    13 Abril, Segunda-feira

    Tempo Temperatura Precipitação Vento Pressão Humidade
    00:00 +8°C° 0 mm 5 m/s 752 mmHg 71%
    01:00 +8°C° 0 mm 5 m/s 751 mmHg 71%
    02:00 +8°C° 0 mm 5 m/s 750 mmHg 72%
    03:00 +7°C° 0 mm 5 m/s 750 mmHg 73%
    04:00 +7°C° 0 mm 5 m/s 749 mmHg 75%
    05:00 +6°C° 0 mm 5 m/s 749 mmHg 76%
    06:00 +7°C° 0 mm 5 m/s 748 mmHg 75%
    07:00 +8°C° 0 mm 5 m/s 747 mmHg 74%
    08:00 +9°C° 0 mm 5 m/s 747 mmHg 73%
    09:00 +10°C° 0.1 mm 5 m/s 746 mmHg 72%
    10:00 +12°C° 0.1 mm 5 m/s 746 mmHg 70%
    11:00 +13°C° 0.1 mm 5 m/s 745 mmHg 68%
    12:00 +12°C° 1.1 mm 5 m/s 745 mmHg 74%
    13:00 +10°C° 1.1 mm 6 m/s 745 mmHg 80%
    14:00 +9°C° 1.1 mm 6 m/s 744 mmHg 85%
    15:00 +7°C° 0.2 mm 6 m/s 745 mmHg 86%
    16:00 +4°C° 0.2 mm 7 m/s 745 mmHg 86%
    17:00 +2°C° 0.2 mm 7 m/s 745 mmHg 86%
    18:00 +1°C° 0 mm 6 m/s 746 mmHg 83%
    19:00 +1°C° 0 mm 5 m/s 746 mmHg 80%
    20:00 0°C° 0 mm 4 m/s 747 mmHg 78%
    21:00 0°C° 0 mm 4 m/s 747 mmHg 77%
    22:00 -1°C° 0 mm 4 m/s 748 mmHg 76%
    23:00 0°C° 0 mm 3 m/s 748 mmHg 76%

    14 Abril, Terça-feira

    Tempo Temperatura Precipitação Vento Pressão Humidade
    00:00 -1°C° 0 mm 3 m/s 748 mmHg 77%
    01:00 -2°C° 0 mm 3 m/s 748 mmHg 77%
    02:00 -2°C° 0 mm 3 m/s 748 mmHg 78%
    03:00 -4°C° 0 mm 3 m/s 748 mmHg 78%
    04:00 -4°C° 0 mm 3 m/s 748 mmHg 77%
    05:00 -4°C° 0 mm 3 m/s 748 mmHg 77%
    06:00 -1°C° 0 mm 3 m/s 748 mmHg 70%
    07:00 -1°C° 0 mm 4 m/s 748 mmHg 64%
    08:00 0°C° 0 mm 5 m/s 748 mmHg 58%
    09:00 +1°C° 0.1 mm 5 m/s 748 mmHg 54%
    10:00 +2°C° 0.1 mm 6 m/s 748 mmHg 51%
    11:00 +3°C° 0.1 mm 6 m/s 748 mmHg 48%
    12:00 +3°C° 0.3 mm 7 m/s 748 mmHg 52%
    13:00 +3°C° 0.3 mm 7 m/s 748 mmHg 55%
    14:00 +3°C° 0.3 mm 7 m/s 748 mmHg 59%
    15:00 +2°C° 0.3 mm 7 m/s 748 mmHg 61%
    16:00 +2°C° 0.3 mm 7 m/s 748 mmHg 63%
    17:00 0°C° 0.3 mm 7 m/s 749 mmHg 65%
    18:00 -1°C° 0.2 mm 6 m/s 749 mmHg 69%
    19:00 -1°C° 0.2 mm 6 m/s 749 mmHg 74%
    20:00 -1°C° 0.2 mm 5 m/s 750 mmHg 79%
    21:00 -2°C° 0 mm 6 m/s 750 mmHg 81%
    22:00 -3°C° 0 mm 6 m/s 751 mmHg 82%
    23:00 -3°C° 0 mm 6 m/s 751 mmHg 83%

    15 Abril, Quarta-feira

    Tempo Temperatura Precipitação Vento Pressão Humidade
    00:00 -4°C° 0 mm 6 m/s 751 mmHg 84%
    01:00 -4°C° 0 mm 5 m/s 751 mmHg 85%
    02:00 -4°C° 0 mm 5 m/s 752 mmHg 86%
    03:00 -4°C° 0 mm 5 m/s 752 mmHg 86%
    04:00 -4°C° 0 mm 5 m/s 752 mmHg 86%
    05:00 -3°C° 0 mm 4 m/s 753 mmHg 86%
    06:00 -2°C° 0 mm 5 m/s 753 mmHg 82%
    07:00 -1°C° 0 mm 5 m/s 754 mmHg 78%
    08:00 0°C° 0 mm 5 m/s 754 mmHg 74%
    09:00 +1°C° 0 mm 5 m/s 754 mmHg 70%
    10:00 +2°C° 0 mm 5 m/s 755 mmHg 65%
    11:00 +3°C° 0 mm 5 m/s 755 mmHg 60%
    12:00 +3°C° 0 mm 5 m/s 755 mmHg 56%
    13:00 +5°C° 0 mm 5 m/s 755 mmHg 53%
    14:00 +5°C° 0 mm 6 m/s 755 mmHg 49%
    15:00 +5°C° 0 mm 6 m/s 755 mmHg 55%
    16:00 +5°C° 0 mm 6 m/s 755 mmHg 60%
    17:00 +5°C° 0 mm 6 m/s 755 mmHg 65%
    18:00 +3°C° 0 mm 5 m/s 755 mmHg 72%
    19:00 +2°C° 0 mm 5 m/s 756 mmHg 79%
    20:00 +1°C° 0 mm 4 m/s 756 mmHg 86%
    21:00 +1°C° 0 mm 4 m/s 756 mmHg 88%
    22:00 +3°C° 0 mm 4 m/s 756 mmHg 90%
    23:00 +3°C° 0 mm 4 m/s 756 mmHg 91%
    Mostrar mais